Location: Bad Rothenbrunn
(47.2167°N, 11.2167°E)
Time: 16:50:44
(UTC+00:00)

SPOT 3 Rocket - Pass Details

Date: 03 March 2021
Orbit: 778 x 795 km, 98.7° (Epoch: 23 April)

Event Time Altitude Azimuth Distance (km) Brightness Sun altitude
Exits shadow 20:18:39 46° 297° (WNW) 1,055 4.5 -32.9°
Drops below altitude 10° 20:22:49 10° 337° (NNW) 2,373 6.6 -33.5°
Sets 20:25:13 0° 342° (NNW) 3,309 7.4 -33.8°
